Time,TemperatureF,DewpointF,PressureIn,WindDirection,WindDirectionDegrees,WindSpeedMPH,WindSpeedGustMPH,Humidity,HourlyPrecipIn,Conditions,Clouds,dailyrainin,SoftwareType,DateUTC
2013-03-08 00:08:00,14.0,12.0,30.46,SSE,153,0.0,0.0,90,0.00,,,0.03,weatherlink.com 1.10,2013-03-08 06:08:00,
2013-03-08 00:24:00,13.3,11.0,30.45,SE,140,1.0,2.0,90,0.00,,,0.03,weatherlink.com 1.10,2013-03-08 06:24:00,
2013-03-08 00:38:00,13.1,12.0,30.45,East,88,2.0,3.0,93,0.00,,,0.03,weatherlink.com 1.10,2013-03-08 06:38:00,
2013-03-08 00:53:00,14.5,13.0,30.47,East,89,0.0,3.0,93,0.00,,,0.03,weatherlink.com 1.10,2013-03-08 06:53:00,
2013-03-08 01:08:00,14.0,12.0,30.48,East,89,0.0,0.0,91,0.00,,,0.03,weatherlink.com 1.10,2013-03-08 07:08:00,
2013-03-08 01:23:00,13.0,11.0,30.49,East,89,0.0,1.0,90,0.00,,,0.03,weatherlink.com 1.10,2013-03-08 07:23:00,
2013-03-08 01:38:00,12.6,10.0,30.49,East,89,0.0,0.0,90,0.00,,,0.03,weatherlink.com 1.10,2013-03-08 07:38:00,
2013-03-08 01:53:00,12.2,10.0,30.50,East,89,0.0,0.0,90,0.00,,,0.03,weatherlink.com 1.10,2013-03-08 07:53:00,
2013-03-08 02:08:00,11.8,10.0,30.50,East,89,1.0,1.0,90,0.00,,,0.03,weatherlink.com 1.10,2013-03-08 08:08:00,
2013-03-08 02:24:00,11.6,9.0,30.49,East,89,0.0,1.0,90,0.00,,,0.03,weatherlink.com 1.10,2013-03-08 08:24:00,
2013-03-08 02:38:00,11.2,9.0,30.48,East,89,0.0,0.0,90,0.00,,,0.03,weatherlink.com 1.10,2013-03-08 08:38:00,
2013-03-08 02:53:00,11.0,9.0,30.48,East,89,0.0,0.0,90,0.00,,,0.03,weatherlink.com 1.10,2013-03-08 08:53:00,
2013-03-08 03:08:00,10.4,8.0,30.48,East,89,0.0,1.0,90,0.00,,,0.03,weatherlink.com 1.10,2013-03-08 09:08:00,
2013-03-08 03:23:00,10.8,9.0,30.47,East,89,0.0,1.0,92,0.00,,,0.03,weatherlink.com 1.10,2013-03-08 09:23:00,
2013-03-08 03:38:00,11.0,9.0,30.48,East,89,0.0,0.0,90,0.00,,,0.03,weatherlink.com 1.10,2013-03-08 09:38:00,
2013-03-08 03:53:00,10.3,8.0,30.49,East,89,0.0,0.0,89,0.00,,,0.03,weatherlink.com 1.10,2013-03-08 09:53:00,
2013-03-08 04:08:00,9.6,7.0,30.49,East,89,0.0,2.0,89,0.00,,,0.03,weatherlink.com 1.10,2013-03-08 10:08:00,
2013-03-08 04:24:00,8.4,6.0,30.49,East,89,0.0,1.0,88,0.00,,,0.03,weatherlink.com 1.10,2013-03-08 10:24:00,
2013-03-08 04:38:00,7.9,5.0,30.50,East,89,0.0,0.0,89,0.00,,,0.03,weatherlink.com 1.10,2013-03-08 10:38:00,
2013-03-08 04:53:00,7.9,6.0,30.49,East,89,0.0,2.0,90,0.00,,,0.03,weatherlink.com 1.10,2013-03-08 10:53:00,
2013-03-08 05:08:00,8.0,6.0,30.49,East,89,0.0,2.0,90,0.00,,,0.03,weatherlink.com 1.10,2013-03-08 11:08:00,
2013-03-08 05:23:00,8.3,6.0,30.50,NNW,336,1.0,3.0,91,0.00,,,0.03,weatherlink.com 1.10,2013-03-08 11:23:00,
2013-03-08 05:38:00,7.9,6.0,30.50,North,5,1.0,2.0,90,0.00,,,0.03,weatherlink.com 1.10,2013-03-08 11:38:00,
2013-03-08 05:54:00,7.9,6.0,30.50,North,10,0.0,2.0,91,0.00,,,0.03,weatherlink.com 1.10,2013-03-08 11:54:00,
2013-03-08 06:09:00,8.1,6.0,30.50,North,10,0.0,1.0,91,0.00,,,0.03,weatherlink.com 1.10,2013-03-08 12:09:00,
2013-03-08 06:24:00,7.9,6.0,30.50,North,10,0.0,0.0,90,0.00,,,0.03,weatherlink.com 1.10,2013-03-08 12:24:00,
2013-03-08 06:39:00,8.0,6.0,30.51,North,10,0.0,0.0,90,0.00,,,0.03,weatherlink.com 1.10,2013-03-08 12:39:00,
2013-03-08 06:54:00,8.2,6.0,30.51,North,10,0.0,0.0,90,0.00,,,0.03,weatherlink.com 1.10,2013-03-08 12:54:00,
2013-03-08 07:09:00,8.6,6.0,30.51,North,10,0.0,1.0,90,0.00,,,0.03,weatherlink.com 1.10,2013-03-08 13:09:00,
2013-03-08 07:24:00,9.2,7.0,30.51,North,10,0.0,1.0,91,0.00,,,0.03,weatherlink.com 1.10,2013-03-08 13:24:00,
2013-03-08 07:39:00,10.2,8.0,30.51,North,10,0.0,1.0,91,0.00,,,0.03,weatherlink.com 1.10,2013-03-08 13:39:00,
2013-03-08 07:54:00,11.4,10.0,30.51,North,10,0.0,1.0,92,0.00,,,0.03,weatherlink.com 1.10,2013-03-08 13:54:00,
2013-03-08 08:09:00,13.4,12.0,30.51,North,10,0.0,1.0,93,0.00,,,0.03,weatherlink.com 1.10,2013-03-08 14:09:00,
2013-03-08 08:24:00,14.8,13.0,30.51,North,10,0.0,1.0,92,0.00,,,0.03,weatherlink.com 1.10,2013-03-08 14:24:00,
2013-03-08 08:39:00,16.2,14.0,30.52,North,10,2.0,2.0,92,0.00,,,0.03,weatherlink.com 1.10,2013-03-08 14:39:00,
2013-03-08 08:54:00,18.8,17.0,30.52,North,10,0.0,1.0,94,0.00,,,0.03,weatherlink.com 1.10,2013-03-08 14:54:00,
2013-03-08 09:09:00,22.1,21.0,30.52,NNE,15,1.0,2.0,94,0.00,,,0.03,weatherlink.com 1.10,2013-03-08 15:09:00,
2013-03-08 09:24:00,28.2,27.0,30.52,SE,136,1.0,5.0,93,0.00,,,0.03,weatherlink.com 1.10,2013-03-08 15:24:00,
2013-03-08 09:39:00,31.5,27.0,30.52,SSE,153,4.0,8.0,82,0.00,,,0.03,weatherlink.com 1.10,2013-03-08 15:39:00,
2013-03-08 09:54:00,32.5,27.0,30.52,SE,139,4.0,7.0,79,0.00,,,0.03,weatherlink.com 1.10,2013-03-08 15:54:00,
2013-03-08 10:09:00,33.3,27.0,30.51,ESE,119,4.0,7.0,77,0.00,,,0.03,weatherlink.com 1.10,2013-03-08 16:09:00,
2013-03-08 10:24:00,33.2,27.0,30.50,SE,144,5.0,10.0,77,0.01,,,0.04,weatherlink.com 1.10,2013-03-08 16:24:00,
2013-03-08 10:39:00,34.0,27.0,30.50,ESE,115,3.0,10.0,76,0.01,,,0.04,weatherlink.com 1.10,2013-03-08 16:39:00,
2013-03-08 10:54:00,34.6,27.0,30.50,East,88,7.0,10.0,75,0.01,,,0.04,weatherlink.com 1.10,2013-03-08 16:54:00,
2013-03-08 11:09:00,35.5,27.0,30.51,ESE,109,4.0,13.0,72,0.01,,,0.04,weatherlink.com 1.10,2013-03-08 17:09:00,
2013-03-08 11:24:00,36.1,28.0,30.51,SE,126,4.0,7.0,72,0.00,,,0.04,weatherlink.com 1.10,2013-03-08 17:24:00,
2013-03-08 11:39:00,36.7,28.0,30.51,SSE,166,4.0,8.0,71,0.01,,,0.05,weatherlink.com 1.10,2013-03-08 17:39:00,
2013-03-08 11:54:00,37.7,28.0,30.51,ESE,123,3.0,7.0,68,0.02,,,0.06,weatherlink.com 1.10,2013-03-08 17:54:00,
2013-03-08 12:09:00,37.3,28.0,30.50,SSE,161,3.0,10.0,69,0.03,,,0.07,weatherlink.com 1.10,2013-03-08 18:09:00,
2013-03-08 12:24:00,36.9,28.0,30.49,ESE,123,2.0,10.0,70,0.04,,,0.08,weatherlink.com 1.10,2013-03-08 18:24:00,
2013-03-08 12:39:00,37.4,28.0,30.48,SSE,150,4.0,12.0,69,0.04,,,0.09,weatherlink.com 1.10,2013-03-08 18:39:00,
2013-03-08 12:54:00,37.1,28.0,30.48,South,178,5.0,10.0,69,0.04,,,0.10,weatherlink.com 1.10,2013-03-08 18:54:00,
2013-03-08 13:09:00,37.3,28.0,30.47,ESE,111,5.0,10.0,69,0.03,,,0.10,weatherlink.com 1.10,2013-03-08 19:09:00,
2013-03-08 13:24:00,36.9,28.0,30.46,SE,142,5.0,11.0,70,0.03,,,0.11,weatherlink.com 1.10,2013-03-08 19:24:00,
2013-03-08 13:39:00,37.5,28.0,30.46,SE,127,5.0,10.0,69,0.03,,,0.12,weatherlink.com 1.10,2013-03-08 19:39:00,
2013-03-08 13:54:00,37.7,28.0,30.45,SE,138,4.0,9.0,69,0.02,,,0.12,weatherlink.com 1.10,2013-03-08 19:54:00,
2013-03-08 14:09:00,38.0,29.0,30.45,ESE,111,3.0,7.0,69,0.01,,,0.12,weatherlink.com 1.10,2013-03-08 20:09:00,
2013-03-08 14:24:00,38.1,28.0,30.45,SE,140,2.0,7.0,68,0.01,,,0.12,weatherlink.com 1.10,2013-03-08 20:24:00,
2013-03-08 14:39:00,38.3,29.0,30.44,South,180,4.0,6.0,68,0.00,,,0.12,weatherlink.com 1.10,2013-03-08 20:39:00,
2013-03-08 14:54:00,38.0,29.0,30.44,South,191,2.0,8.0,69,0.00,,,0.12,weatherlink.com 1.10,2013-03-08 20:54:00,
2013-03-08 15:09:00,37.8,28.0,30.44,ESE,117,3.0,9.0,69,0.00,,,0.12,weatherlink.com 1.10,2013-03-08 21:09:00,
2013-03-08 15:24:00,37.7,28.0,30.44,ESE,107,4.0,8.0,69,0.00,,,0.00,weatherlink.com 1.10,2013-03-08 21:24:00,
2013-03-08 15:39:00,37.7,29.0,30.43,ESE,123,3.0,7.0,70,0.00,,,0.00,weatherlink.com 1.10,2013-03-08 21:39:00,
2013-03-08 15:54:00,37.4,28.0,30.42,SE,140,3.0,7.0,70,0.00,,,0.00,weatherlink.com 1.10,2013-03-08 21:54:00,
2013-03-08 16:09:00,37.5,29.0,30.41,ESE,115,1.0,6.0,71,0.00,,,0.00,weatherlink.com 1.10,2013-03-08 22:09:00,
2013-03-08 16:24:00,37.4,29.0,30.41,ESE,110,1.0,6.0,71,0.00,,,0.00,weatherlink.com 1.10,2013-03-08 22:24:00,
2013-03-08 16:39:00,37.5,29.0,30.41,SE,124,3.0,8.0,70,0.00,,,0.00,weatherlink.com 1.10,2013-03-08 22:39:00,
2013-03-08 16:54:00,37.5,28.0,30.42,ESE,116,3.0,6.0,69,0.00,,,0.00,weatherlink.com 1.10,2013-03-08 22:54:00,
2013-03-08 17:09:00,37.2,29.0,30.42,SE,131,3.0,6.0,71,0.00,,,0.00,weatherlink.com 1.10,2013-03-08 23:09:00,
2013-03-08 17:24:00,36.9,29.0,30.43,SSE,147,3.0,5.0,72,0.00,,,0.00,weatherlink.com 1.10,2013-03-08 23:24:00,
2013-03-08 17:39:00,36.5,29.0,30.42,SE,142,2.0,5.0,73,0.00,,,0.00,weatherlink.com 1.10,2013-03-08 23:39:00,
2013-03-08 17:54:00,36.0,28.0,30.42,SE,141,2.0,4.0,74,0.00,,,0.00,weatherlink.com 1.10,2013-03-08 23:54:00,
2013-03-08 18:10:00,35.5,28.0,30.42,SE,141,3.0,3.0,75,0.00,,,0.00,weatherlink.com 1.10,2013-03-09 00:10:00,
2013-03-08 18:25:00,35.0,28.0,30.43,SSE,148,0.0,3.0,76,0.00,,,0.00,weatherlink.com 1.10,2013-03-09 00:25:00,
2013-03-08 18:40:00,34.4,28.0,30.43,SSE,148,0.0,2.0,78,0.00,,,0.00,weatherlink.com 1.10,2013-03-09 00:40:00,
2013-03-08 18:55:00,34.2,28.0,30.42,SE,142,1.0,3.0,78,0.00,,,0.00,weatherlink.com 1.10,2013-03-09 00:55:00,
2013-03-08 19:10:00,33.9,28.0,30.42,SE,140,2.0,4.0,79,0.00,,,0.00,weatherlink.com 1.10,2013-03-09 01:10:00,
2013-03-08 19:25:00,33.6,28.0,30.42,SE,140,1.0,2.0,79,0.00,,,0.00,weatherlink.com 1.10,2013-03-09 01:25:00,
2013-03-08 19:40:00,32.3,26.0,30.42,SE,140,0.0,1.0,79,0.00,,,0.00,weatherlink.com 1.10,2013-03-09 01:40:00,
2013-03-08 19:55:00,31.6,27.0,30.42,SE,140,1.0,2.0,83,0.00,,,0.00,weatherlink.com 1.10,2013-03-09 01:55:00,
2013-03-08 20:10:00,32.1,27.0,30.42,SE,140,1.0,4.0,82,0.00,,,0.00,weatherlink.com 1.10,2013-03-09 02:10:00,
2013-03-08 20:25:00,32.4,27.0,30.41,SE,136,1.0,5.0,81,0.00,,,0.00,weatherlink.com 1.10,2013-03-09 02:25:00,
2013-03-08 20:40:00,32.6,27.0,30.41,SE,134,2.0,4.0,80,0.00,,,0.00,weatherlink.com 1.10,2013-03-09 02:40:00,
2013-03-08 20:55:00,32.4,27.0,30.41,ESE,112,3.0,5.0,80,0.00,,,0.00,weatherlink.com 1.10,2013-03-09 02:55:00,
2013-03-08 21:10:00,31.9,26.0,30.40,ESE,107,2.0,4.0,80,0.00,,,0.00,weatherlink.com 1.10,2013-03-09 03:10:00,
2013-03-08 21:25:00,30.2,24.0,30.39,ESE,111,2.0,4.0,79,0.00,,,0.00,weatherlink.com 1.10,2013-03-09 03:25:00,
2013-03-08 21:40:00,28.8,25.0,30.38,ESE,105,4.0,5.0,84,0.00,,,0.00,weatherlink.com 1.10,2013-03-09 03:40:00,
2013-03-08 21:55:00,29.4,25.0,30.37,ESE,114,3.0,6.0,82,0.00,,,0.00,weatherlink.com 1.10,2013-03-09 03:55:00,
2013-03-08 22:10:00,30.3,25.0,30.37,ESE,117,4.0,7.0,82,0.00,,,0.00,weatherlink.com 1.10,2013-03-09 04:10:00,
2013-03-08 22:25:00,30.5,25.0,30.36,ESE,106,2.0,8.0,81,0.00,,,0.00,weatherlink.com 1.10,2013-03-09 04:25:00,
2013-03-08 22:40:00,31.0,26.0,30.36,SE,144,5.0,7.0,82,0.00,,,0.00,weatherlink.com 1.10,2013-03-09 04:40:00,
2013-03-08 22:55:00,31.8,26.0,30.36,ESE,113,1.0,10.0,80,0.00,,,0.00,weatherlink.com 1.10,2013-03-09 04:55:00,
2013-03-08 23:10:00,31.9,26.0,30.35,SE,126,3.0,5.0,79,0.00,,,0.00,weatherlink.com 1.10,2013-03-09 05:10:00,
2013-03-08 23:25:00,32.3,26.0,30.34,SE,139,5.0,7.0,79,0.00,,,0.00,weatherlink.com 1.10,2013-03-09 05:25:00,
2013-03-08 23:40:00,32.1,26.0,30.34,SE,126,1.0,6.0,79,0.00,,,0.00,weatherlink.com 1.10,2013-03-09 05:40:00,
2013-03-08 23:55:00,32.2,26.0,30.34,SE,139,4.0,5.0,79,0.00,,,0.00,weatherlink.com 1.10,2013-03-09 05:55:00,